Weather History for KFQD - June, 2013

Change the Weather History Date:

Wednesday, June 5, 2013

  Actual Average (KAVL) Record (KAVL)
Temperature  
Mean Temperature 72 °F 68 °F  
Max Temperature 77 °F 79 °F 93 °F (1985)
Min Temperature 66 °F 57 °F 40 °F (1988)
Degree Days  
Heating Degree Days 0 1  
Month to date heating degree days 5  
Since 1 June heating degree days 5  
Since 1 July heating degree days 4186  
Cooling Degree Days 6 4  
Month to date cooling degree days 20  
Year to date cooling degree days 78  
Since 1 June cooling degree days 20  
Growing Degree Days 22 (Base 50)    
Moisture  
Dew Point 65 °F    
Average Humidity 83    
Maximum Humidity 99    
Minimum Humidity 70    
Precipitation  
Precipitation 1.45 in 0.15 in 1.78 in (1897)
Month to date precipitation 0.72  
Year to date precipitation 18.97  
Snow  
Snow 0.00 in 0.00 in 0.00 in ()
Month to date snowfall 0.0  
Since 1 June snowfall 0.0  
Since 1 July snowfall 9.9  
Snow Depth -    
Sea Level Pressure  
Sea Level Pressure 30.08 in    
Wind  
Wind Speed 4 mph (NE)    
Max Wind Speed 14 mph    
Max Gust Speed 21 mph    
Visibility 9 miles    
Events Rain , Thunderstorm    
T = Trace of Precipitation, MM = Missing Value Source: NWS Daily Summary

Daily Weather History Graph

Daily Weather History Graph

Search for Another Location

Airport or City:

Trip Planner

Search our weather history database for the weather conditions in past years. The results will help you decide how hot, cold, wet, or windy it might be!

Date:

Astronomy

Jun. 05, 2013 Rise Set
Actual Time 6:12 AM EDT 8:40 PM EDT
Civil Twilight 5:43 AM EDT 9:09 PM EDT
Nautical Twilight 5:06 AM EDT 9:46 PM EDT
Astronomical Twilight 4:26 AM EDT 10:26 PM EDT
Moon 4:11 AM EDT (6/5) 6:09 PM EDT (6/5)
Length of Visible Light 15h 26m
Length of Day
14h 27m
Waning Crescent, 8% of the Moon is Illuminated
Jun 5
Waning Crescent
Jun 8
New
Jun 16
First Quarter
Jun 23
Full
Jun 30
Last Quarter

Hourly Weather History & Observations

Time (EDT) Temp. Dew Point Humidity Pressure Visibility Wind Dir Wind Speed Gust Speed Precip Events Conditions
12:15 AM 68.9 °F 64.8 °F 87% 30.11 in 10.0 mi NW 3.5 mph - N/A   Overcast
12:35 AM 68.5 °F 63.9 °F 85% 30.11 in 10.0 mi Calm Calm - N/A   Mostly Cloudy
12:55 AM 69.3 °F 63.7 °F 82% 30.11 in 10.0 mi Calm Calm - N/A   Overcast
1:15 AM 68.9 °F 63.7 °F 83% 30.11 in 10.0 mi North 3.5 mph - N/A   Overcast
1:35 AM 68.9 °F 63.5 °F 83% 30.11 in 10.0 mi NNE 4.6 mph - N/A   Overcast
1:55 AM 68.5 °F 63.5 °F 84% 30.10 in 10.0 mi North 3.5 mph - N/A   Overcast
2:15 AM 68.4 °F 63.7 °F 85% 30.11 in 10.0 mi Calm Calm - N/A   Overcast
2:35 AM 68.4 °F 63.9 °F 85% 30.10 in 10.0 mi Calm Calm - N/A   Overcast
2:55 AM 68.0 °F 63.9 °F 87% 30.10 in 10.0 mi WNW 8.1 mph - N/A   Overcast
3:15 AM 67.5 °F 63.5 °F 87% 30.09 in 10.0 mi NW 6.9 mph - N/A   Overcast
3:35 AM 67.5 °F 63.1 °F 86% 30.09 in 10.0 mi NNW 4.6 mph - N/A   Overcast
3:55 AM 68.0 °F 62.8 °F 83% 30.09 in 10.0 mi North 6.9 mph - N/A   Overcast
4:15 AM 67.6 °F 62.8 °F 84% 30.09 in 10.0 mi NNE 5.8 mph - N/A   Overcast
4:35 AM 67.8 °F 63.0 °F 84% 30.09 in 10.0 mi NNE 5.8 mph - N/A   Overcast
4:55 AM 67.8 °F 63.0 °F 84% 30.09 in 10.0 mi NNE 5.8 mph - N/A   Overcast
5:15 AM 67.5 °F 62.8 °F 85% 30.10 in 10.0 mi Calm Calm - N/A   Overcast
5:35 AM 67.5 °F 62.8 °F 85% 30.10 in 10.0 mi NNE 4.6 mph - N/A   Overcast
5:55 AM 67.3 °F 62.6 °F 85% 30.10 in 10.0 mi NNE 4.6 mph - N/A   Overcast
6:15 AM 67.3 °F 62.6 °F 85% 30.11 in 10.0 mi North 3.5 mph - N/A   Overcast
6:35 AM 67.1 °F 62.6 °F 85% 30.12 in 10.0 mi NNE 4.6 mph - N/A   Overcast
6:55 AM 67.1 °F 62.6 °F 85% 30.12 in 10.0 mi NNE 5.8 mph - N/A   Overcast
7:15 AM 67.5 °F 62.2 °F 83% 30.12 in 10.0 mi North 4.6 mph - N/A   Overcast
7:35 AM 67.6 °F 62.6 °F 84% 30.13 in 10.0 mi NE 4.6 mph - N/A   Overcast
7:55 AM 68.0 °F 62.6 °F 83% 30.13 in 10.0 mi NNE 4.6 mph - N/A   Overcast
8:15 AM 68.4 °F 62.8 °F 82% 30.14 in 10.0 mi NNE 4.6 mph - N/A   Overcast
8:35 AM 68.4 °F 63.1 °F 83% 30.14 in 10.0 mi NNE 3.5 mph - N/A   Overcast
8:55 AM 68.7 °F 63.3 °F 83% 30.13 in 10.0 mi NNE 4.6 mph - N/A   Overcast
9:15 AM 70.2 °F 63.7 °F 80% 30.13 in 10.0 mi NNE 4.6 mph - N/A   Overcast
9:35 AM 69.8 °F 63.3 °F 80% 30.14 in 10.0 mi NNE 4.6 mph - N/A   Overcast
9:55 AM 70.9 °F 64.2 °F 79% 30.13 in 10.0 mi NNE 4.6 mph - N/A   Overcast
10:15 AM 72.1 °F 64.8 °F 78% 30.13 in 10.0 mi NE 3.5 mph - N/A   Overcast
10:35 AM 71.8 °F 65.1 °F 79% 30.12 in 7.0 mi Calm Calm - N/A   Overcast
10:55 AM 72.5 °F 65.3 °F 78% 30.12 in 10.0 mi NNW 3.5 mph - N/A   Overcast
11:15 AM 72.7 °F 65.3 °F 78% 30.12 in 10.0 mi East 3.5 mph - N/A   Overcast
11:35 AM 72.5 °F 65.3 °F 78% 30.12 in 10.0 mi Calm Calm - N/A   Overcast
11:55 AM 73.6 °F 66.2 °F 78% 30.11 in 10.0 mi NE 4.6 mph - N/A   Overcast
12:15 PM 72.9 °F 66.2 °F 80% 30.11 in 10.0 mi ENE 4.6 mph - N/A   Overcast
12:35 PM 73.6 °F 66.9 °F 80% 30.10 in 7.0 mi ESE 4.6 mph - N/A   Overcast
12:55 PM 73.4 °F 66.4 °F 79% 30.10 in 10.0 mi ESE 5.8 mph - N/A   Overcast
1:15 PM 73.8 °F 66.9 °F 79% 30.10 in 10.0 mi SE 4.6 mph - N/A   Overcast
1:35 PM 73.4 °F 66.9 °F 80% 30.10 in 7.0 mi SE 6.9 mph - N/A   Overcast
1:55 PM 73.0 °F 66.7 °F 81% 30.10 in 10.0 mi Calm Calm - N/A   Overcast
2:15 PM 73.4 °F 66.9 °F 80% 30.09 in 7.0 mi Calm Calm - N/A Rain Light Rain
2:35 PM 75.6 °F 68.0 °F 77% 30.08 in 7.0 mi ESE 6.9 mph - N/A   Mostly Cloudy
2:55 PM 76.3 °F 67.5 °F 74% 30.07 in 10.0 mi East 6.9 mph - N/A   Mostly Cloudy
3:15 PM 77.2 °F 67.5 °F 72% 30.06 in 7.0 mi East 5.8 mph - N/A   Mostly Cloudy
3:35 PM 77.9 °F 67.5 °F 70% 30.05 in 10.0 mi ESE 3.5 mph - N/A   Mostly Cloudy
3:55 PM 77.0 °F 66.7 °F 70% 30.03 in 10.0 mi SE 4.6 mph - N/A   Mostly Cloudy
4:15 PM 77.0 °F 67.6 °F 73% 30.04 in 10.0 mi East 3.5 mph - N/A   Mostly Cloudy
4:35 PM 75.7 °F 67.1 °F 74% 30.05 in 10.0 mi East 4.6 mph - N/A   Overcast
4:55 PM 75.2 °F 67.1 °F 76% 30.03 in 10.0 mi East 5.8 mph - N/A   Overcast
5:15 PM 77.4 °F 67.5 °F 71% 30.02 in 7.0 mi ENE 10.4 mph - N/A   Scattered Clouds
5:35 PM 77.2 °F 67.3 °F 71% 30.01 in 7.0 mi ESE 3.5 mph - N/A   Scattered Clouds
5:55 PM 77.0 °F 67.6 °F 73% 30.02 in 10.0 mi East 5.8 mph - N/A   Scattered Clouds
6:15 PM 75.7 °F 67.1 °F 74% 30.01 in 10.0 mi East 4.6 mph - N/A   Scattered Clouds
6:35 PM 75.9 °F 67.3 °F 74% 30.00 in 10.0 mi ESE 5.8 mph - N/A   Scattered Clouds
6:55 PM 75.4 °F 67.3 °F 76% 30.01 in 10.0 mi ENE 6.9 mph - N/A   Clear
7:15 PM 74.5 °F 67.5 °F 79% 30.01 in 10.0 mi East 5.8 mph - N/A   Mostly Cloudy
7:35 PM 73.8 °F 67.1 °F 80% 30.02 in 10.0 mi ENE 4.6 mph - N/A   Overcast
7:55 PM 73.4 °F 67.1 °F 81% 30.02 in 10.0 mi ENE 3.5 mph - N/A   Overcast
8:15 PM 72.7 °F 67.3 °F 83% 30.03 in 10.0 mi South 13.8 mph 17.3 mph N/A Thunderstorm Overcast
8:35 PM 66.6 °F 65.3 °F 96% 30.04 in 0.8 mi West 5.8 mph 20.7 mph 0.44 in Rain Heavy Rain
8:55 PM 67.1 °F 66.6 °F 98% 30.04 in 5.0 mi SW 4.6 mph - 0.83 in Rain Rain
9:15 PM 67.3 °F 66.7 °F 98% 30.04 in 2.5 mi Calm Calm - 0.21 in Rain Heavy Rain
9:35 PM 67.5 °F 67.1 °F 99% 30.04 in 5.0 mi Calm Calm - 0.41 in Rain Rain
9:55 PM 67.5 °F 67.1 °F 99% 30.04 in 5.0 mi Calm Calm - 0.54 in Rain Light Rain
10:15 PM 67.3 °F 67.1 °F 99% 30.04 in 7.0 mi Calm Calm - 0.07 in Rain Light Rain
10:35 PM 67.5 °F 67.1 °F 99% 30.04 in 10.0 mi Calm Calm - 0.08 in Rain Light Rain
10:55 PM 67.8 °F 67.3 °F 98% 30.05 in 10.0 mi Calm Calm - 0.08 in   Overcast
11:15 PM 67.3 °F 67.1 °F 99% 30.04 in 10.0 mi Calm Calm - N/A   Light Drizzle
11:35 PM 67.5 °F 66.9 °F 98% 30.03 in 10.0 mi Calm Calm - N/A Rain Light Rain
11:55 PM 67.5 °F 67.1 °F 99% 30.02 in 10.0 mi NE 4.6 mph - N/A Rain Rain